Wind_Speed
10 8 8 7 6 6 6 6 7 8 9 10 11 12 13 14 15 16 17 17 18 19 21 22 23 22 21 22 17 16 17 17 17 16 14 14 14 14 14 14 14 14 14
13 12 12 10 8 6 6 7 8 9 10 11 12 13 15 16 17 18 18 19 20 22 23 23 23 23 20 16 13 15 15 18 19 19 17 17 16 16 16 16 16 16 15
16 15 14 12 10 8 8 9 10 11 12 13 15 16 17 19 19 20 20 21 21 22 24 24 24 24 13 15 15 17 19 18 16 19 20 19 18 17 17 16 16 16 16
20 18 16 15 13 11 11 12 12 12 14 16 17 19 20 21 22 22 22 23 25 26 26 25 24 23 21 17 17 18 18 19 21 21 21 21 20 19 18 17 16 15 15
21 20 19 18 15 13 13 14 14 15 17 19 21 21 22 22 22 23 24 26 27 27 26 26 25 22 21 21 21 20 20 21 21 21 22 21 21 21 19 18 17 16 15
22 22 21 19 17 15 16 16 17 18 20 22 23 24 24 25 26 26 25 26 27 27 27 26 25 23 22 23 23 22 23 23 22 21 21 22 22 23 22 20 18 18 17
24 23 22 19 16 17 17 17 18 21 23 25 26 25 26 26 27 28 28 26 27 27 27 26 25 25 25 25 23 23 24 24 22 22 21 22 22 24 24 25 21 21 20
20 21 18 16 16 17 18 19 21 22 23 26 29 31 31 28 28 29 29 27 26 26 26 27 26 27 28 29 27 25 19 22 21 21 22 21 20 21 23 25 26 25 22
20 21 18 17 17 17 20 22 24 25 25 27 30 33 36 34 33 33 32 31 31 31 30 28 27 27 29 30 27 30 17 18 19 20 20 19 19 20 21 23 24 26 26
20 22 22 16 18 20 23 24 25 27 28 28 30 32 35 36 36 36 32 31 31 32 32 31 30 30 29 31 29 31 22 20 19 18 18 20 18 19 21 22 24 25 26
24 24 21 19 20 21 25 26 26 27 28 29 30 31 33 35 35 36 36 30 32 33 33 32 31 31 31 30 29 25 25 22 18 17 19 19 18 17 19 20 21 21 22
26 22 21 19 21 24 26 25 26 30 32 32 33 34 34 34 34 34 36 34 31 32 31 32 32 30 30 29 27 24 24 23 19 21 21 18 18 17 15 13 14 15 18
22 22 22 21 24 24 27 27 28 29 32 34 35 35 37 36 36 35 35 33 34 33 31 30 30 30 29 27 25 23 22 21 20 19 20 18 17 13 11 10 11 11 12
22 23 25 25 24 26 28 28 30 33 44 38 38 37 36 36 36 35 34 34 33 34 34 32 29 27 30 25 24 22 20 19 19 18 16 14 11 10 10 10 10 9 9
24 26 26 26 30 33 33 36 42 50 35 40 35 33 33 34 34 34 34 33 33 33 34 33 30 27 28 25 23 22 20 18 17 16 14 12 10 10 11 10 10 10 10
29 30 30 32 32 37 47 46 37 35 39 36 34 34 33 34 34 34 33 33 32 33 34 32 29 28 26 23 20 22 18 16 13 10 10 11 11 10 10 9 9 10 9
37 41 41 43 28 29 28 29 32 35 36 36 37 37 34 34 33 33 33 33 32 32 32 32 29 27 24 22 21 20 17 14 12 10 9 10 9 10 11 11 11 12 12
32 29 35 26 33 32 32 33 33 34 36 36 36 36 35 34 33 33 32 32 31 30 30 30 27 25 22 20 19 18 15 14 13 12 12 12 13 15 15 14 14 15 14
32 31 34 36 35 33 32 32 31 32 32 32 33 34 34 33 33 33 31 30 30 29 27 27 25 23 20 18 15 13 14 15 15 15 16 15 16 17 16 16 15 15 15
33 32 35 33 31 30 30 30 30 30 30 31 32 32 32 31 31 30 29 27 26 25 24 23 20 19 18 16 15 15 15 16 16 17 17 17 16 16 16 15 15 14 15
33 32 29 28 28 28 29 29 29 30 30 31 31 31 31 30 29 27 26 25 22 20 18 18 18 16 15 14 16 16 15 16 17 17 18 16 16 16 16 15 14 13 14
26 25 25 26 26 27 28 29 29 30 30 31 30 30 28 28 26 24 20 21 19 18 14 14 12 13 14 15 16 16 16 16 15 16 16 16 16 16 16 15 14 13 13
23 23 23 23 25 27 29 29 30 30 31 31 30 29 26 23 21 18 15 11 12 10 9 11 11 13 14 14 14 15 15 16 17 17 17 16 16 16 16 15 15 14 14
21 21 23 25 27 29 30 30 30 31 30 29 27 24 22 18 16 13 11 9 9 9 10 12 11 13 14 14 14 16 17 18 18 18 17 16 16 16 16 17 16 16 16
22 24 25 27 29 30 31 30 30 30 28 26 23 19 16 14 12 11 10 8 8 11 15 14 12 12 13 15 16 17 17 17 17 17 17 17 17 17 18 18 19 18 18
25 25 27 29 30 31 30 29 28 27 25 22 20 17 14 13 11 9 8 9 12 16 17 14 13 14 14 16 17 16 16 16 16 17 17 17 18 18 19 19 20 20 19
Wind_Direction
230 234 245 252 258 272 282 288 292 297 300 303 305 305 305 308 310 310 309 308 307 309 312 315 317 318 320 318 310 308 306 301 303 304 298 297 292 288 286 285 284 281 277
235 240 243 245 252 263 277 291 297 298 298 300 301 303 304 307 309 308 306 306 304 305 307 311 314 315 315 310 305 307 300 292 296 297 299 296 294 292 289 283 282 278 276
239 240 240 241 247 258 272 285 291 293 297 301 304 306 308 308 307 306 304 300 299 298 303 309 313 314 309 308 301 296 281 283 281 291 293 291 291 289 289 287 282 280 276
244 240 238 238 245 254 270 282 288 293 299 302 304 305 309 309 307 308 308 306 304 305 305 309 310 310 307 306 296 288 286 285 280 276 276 286 288 290 286 286 284 280 278
240 241 237 239 245 259 276 286 291 297 300 303 306 307 307 307 309 311 309 306 303 304 306 307 308 302 302 304 300 293 289 287 283 278 275 277 278 286 287 284 280 276 275
239 235 233 239 250 265 277 283 291 298 301 303 305 307 309 311 310 312 310 307 304 303 302 301 300 296 295 299 296 296 296 293 288 283 276 274 270 267 275 281 278 275 271
236 232 232 239 254 267 273 282 292 300 305 305 305 305 304 307 307 308 308 307 303 300 300 300 296 300 298 298 295 304 300 292 288 287 283 275 270 266 263 263 274 275 282
238 229 232 243 258 270 282 293 299 300 304 307 307 305 306 306 306 305 306 306 300 298 295 297 300 299 301 305 304 307 297 289 286 283 281 278 274 269 267 265 262 260 274
241 228 237 246 271 279 287 291 295 300 304 304 305 306 307 307 307 307 307 307 304 301 299 299 299 299 300 302 295 304 310 291 290 286 280 278 277 275 272 267 264 259 254
249 253 264 254 267 282 288 291 296 298 301 302 303 302 302 304 303 302 302 301 299 298 299 298 298 297 298 296 290 297 303 296 293 289 287 285 284 283 275 269 263 261 259
246 255 256 259 267 282 288 289 291 296 300 302 302 301 300 299 300 299 299 296 295 295 294 294 295 294 294 294 291 293 300 296 294 287 287 286 296 281 271 267 265 263 262
249 248 254 264 275 284 286 288 294 298 299 298 299 299 298 298 297 295 295 296 292 289 289 290 291 291 288 293 291 285 294 293 296 294 293 297 287 284 277 268 266 266 264
265 259 261 263 266 269 273 284 290 295 297 296 296 296 297 296 295 294 291 291 291 290 288 286 286 285 286 286 287 283 283 288 292 294 294 291 285 275 262 263 271 273 267
251 256 261 261 259 270 273 277 279 286 294 296 293 290 291 290 289 289 290 289 288 288 287 285 287 279 278 280 283 280 282 290 291 292 287 287 270 259 261 265 269 273 266
257 258 256 255 265 271 271 273 283 294 288 290 291 292 291 290 288 287 286 285 284 283 285 283 286 286 282 278 274 282 285 289 287 282 277 269 263 264 262 260 262 261 261
251 252 248 254 262 267 274 279 284 277 287 290 293 292 292 290 289 287 286 284 281 280 279 280 280 280 277 274 277 279 283 280 276 281 269 260 266 260 250 252 252 256 256
245 247 261 269 280 292 291 282 283 284 286 288 290 291 291 290 288 287 285 282 280 278 276 277 276 275 275 274 273 277 275 262 267 274 270 263 259 259 256 258 257 259 262
268 273 269 295 288 289 288 287 289 288 288 289 289 290 290 290 289 287 285 282 278 276 274 272 271 271 268 265 270 269 257 257 266 264 267 265 265 265 263 263 265 267 264
265 261 269 286 282 284 287 287 288 288 288 290 290 290 291 290 290 287 284 281 277 274 270 269 267 265 263 262 257 254 254 260 267 271 271 269 267 265 263 264 264 266 266
264 272 274 277 280 282 283 286 287 288 289 290 291 291 289 289 288 286 282 276 274 272 269 265 262 260 259 248 248 253 260 267 271 270 270 269 266 264 262 261 262 261 260
262 266 271 275 279 282 285 286 287 289 291 292 292 293 292 290 287 283 279 271 260 254 255 256 253 244 242 254 262 264 265 267 267 268 269 268 267 266 265 260 257 254 255
259 266 270 275 280 283 285 287 289 291 292 292 291 290 290 289 286 281 277 276 266 258 238 234 239 249 257 263 266 270 271 270 273 271 268 269 267 266 263 260 255 254 252
262 268 274 279 284 287 288 289 291 291 292 293 292 290 287 284 278 273 268 256 261 241 245 245 252 260 265 268 271 273 274 277 276 275 271 269 266 264 262 259 256 255 258
263 270 277 283 287 289 291 291 290 290 290 290 289 287 282 275 266 257 250 244 256 274 277 263 260 261 264 270 275 277 279 278 278 274 271 267 265 264 263 263 262 260 259
262 270 279 285 289 292 293 292 292 291 290 288 282 275 268 259 249 242 237 242 248 267 264 259 257 259 272 277 282 281 280 280 277 275 272 269 266 264 264 265 266 265 265
266 275 282 286 291 294 294 293 291 289 286 281 276 264 253 244 234 236 252 263 253 246 249 261 267 271 277 280 280 281 283 282 279 276 273 272 269 267 267 267 268 269 270
Height
3182 3182 3182 3181 3182 3182 3182 3182 3182 3181 3181 3180 3180 3179 3178 3177 3176 3174 3173 3171 3170 3168 3165 3164 3162 3160 3159 3157 3154 3153 3152 3150 3148 3148 3147 3146 3145 3145 3144 3144 3143 3143 3142
3179 3180 3180 3180 3180 3180 3180 3180 3180 3179 3179 3179 3178 3177 3176 3174 3173 3171 3170 3169 3167 3165 3162 3161 3159 3157 3156 3154 3152 3151 3149 3147 3145 3144 3144 3143 3142 3142 3141 3140 3140 3140 3140
3177 3178 3178 3178 3177 3178 3178 3178 3177 3177 3177 3176 3175 3174 3173 3171 3170 3168 3167 3166 3164 3161 3159 3158 3155 3153 3152 3151 3150 3147 3145 3144 3142 3141 3139 3138 3138 3138 3137 3136 3136 3136 3136
3174 3174 3175 3175 3175 3175 3175 3175 3175 3174 3174 3173 3172 3171 3169 3167 3166 3165 3163 3161 3158 3157 3154 3153 3151 3148 3147 3147 3146 3143 3141 3140 3138 3138 3137 3135 3134 3133 3133 3132 3132 3132 3132
3169 3170 3171 3172 3172 3172 3172 3172 3171 3171 3170 3169 3168 3167 3165 3163 3162 3160 3158 3155 3153 3151 3150 3148 3147 3144 3142 3141 3140 3138 3136 3135 3134 3133 3132 3132 3130 3128 3128 3128 3128 3128 3129
3163 3165 3166 3168 3169 3169 3169 3169 3169 3167 3166 3165 3163 3162 3161 3159 3157 3155 3154 3151 3148 3146 3144 3143 3142 3140 3138 3136 3135 3133 3131 3129 3128 3127 3127 3126 3126 3125 3124 3123 3124 3124 3124
3157 3160 3162 3164 3165 3166 3165 3165 3165 3164 3162 3160 3159 3158 3157 3155 3152 3150 3148 3147 3143 3141 3140 3138 3136 3134 3132 3131 3130 3128 3125 3123 3122 3121 3121 3120 3120 3120 3120 3119 3119 3119 3119
3152 3154 3157 3159 3160 3161 3161 3161 3160 3160 3158 3156 3154 3151 3149 3151 3148 3145 3143 3142 3139 3137 3135 3133 3131 3129 3127 3125 3122 3121 3120 3118 3117 3116 3115 3115 3115 3114 3114 3114 3114 3115 3114
3147 3147 3151 3153 3155 3156 3157 3157 3157 3155 3153 3152 3149 3146 3142 3142 3140 3139 3137 3135 3133 3130 3129 3128 3126 3124 3122 3120 3118 3115 3115 3113 3112 3111 3110 3109 3109 3109 3108 3107 3107 3108 3109
3146 3145 3147 3148 3150 3152 3152 3152 3151 3150 3148 3147 3145 3142 3138 3135 3134 3132 3132 3129 3127 3124 3123 3121 3120 3118 3116 3115 3113 3110 3109 3109 3108 3107 3106 3105 3104 3104 3103 3102 3102 3101 3102
3138 3138 3141 3144 3145 3146 3147 3146 3146 3144 3143 3142 3140 3137 3133 3129 3127 3123 3122 3125 3121 3119 3116 3115 3114 3113 3111 3110 3107 3105 3104 3103 3103 3101 3100 3099 3099 3098 3097 3096 3096 3097 3097
3132 3133 3137 3138 3139 3140 3140 3140 3139 3138 3136 3135 3133 3131 3128 3124 3121 3118 3114 3114 3115 3113 3110 3108 3107 3107 3105 3103 3102 3100 3099 3098 3098 3096 3095 3094 3092 3092 3092 3091 3092 3092 3092
3128 3129 3131 3132 3133 3133 3134 3133 3132 3131 3129 3128 3125 3123 3120 3117 3114 3112 3109 3107 3104 3104 3103 3101 3101 3100 3098 3097 3096 3094 3094 3093 3092 3091 3089 3088 3087 3087 3088 3088 3087 3087 3087
3120 3123 3125 3126 3126 3126 3125 3125 3123 3123 3122 3120 3117 3114 3112 3109 3107 3105 3103 3100 3098 3096 3094 3093 3093 3092 3092 3090 3090 3089 3088 3087 3087 3086 3084 3084 3083 3084 3084 3084 3084 3085 3085
3116 3118 3119 3120 3118 3117 3117 3116 3115 3113 3112 3111 3108 3105 3103 3101 3098 3097 3095 3094 3092 3089 3088 3087 3086 3086 3085 3084 3084 3083 3083 3082 3082 3081 3080 3080 3081 3081 3081 3081 3081 3081 3082
3109 3110 3109 3108 3108 3109 3109 3108 3106 3105 3105 3103 3099 3097 3095 3094 3091 3089 3088 3086 3085 3083 3080 3080 3079 3079 3078 3078 3078 3078 3078 3078 3078 3076 3076 3077 3076 3076 3078 3078 3079 3079 3079
3101 3101 3102 3101 3102 3102 3100 3100 3099 3098 3096 3094 3092 3089 3087 3084 3082 3080 3079 3078 3076 3075 3073 3072 3073 3072 3072 3072 3073 3073 3073 3073 3074 3073 3074 3074 3074 3074 3074 3074 3075 3076 3076
3093 3093 3094 3095 3095 3094 3093 3092 3090 3089 3088 3086 3083 3081 3078 3075 3073 3071 3070 3069 3068 3067 3066 3066 3066 3066 3066 3067 3067 3068 3068 3069 3069 3070 3069 3070 3070 3071 3070 3070 3070 3071 3072
3086 3086 3087 3089 3089 3086 3085 3084 3083 3081 3080 3077 3074 3072 3070 3067 3065 3063 3062 3061 3060 3060 3059 3059 3060 3060 3061 3061 3063 3063 3064 3064 3065 3065 3066 3064 3065 3066 3065 3065 3065 3066 3067
3079 3081 3081 3081 3080 3079 3078 3077 3076 3074 3071 3069 3067 3065 3062 3059 3057 3055 3054 3053 3053 3053 3053 3053 3054 3056 3056 3057 3058 3059 3059 3060 3060 3061 3061 3060 3060 3061 3061 3060 3061 3061 3062
3073 3073 3073 3073 3073 3072 3071 3070 3068 3066 3063 3061 3060 3057 3054 3051 3049 3047 3046 3046 3045 3045 3046 3048 3049 3050 3051 3053 3055 3055 3054 3055 3055 3055 3056 3055 3056 3056 3056 3056 3056 3056 3057
3066 3066 3067 3066 3066 3065 3063 3062 3060 3057 3056 3054 3052 3049 3046 3044 3043 3042 3041 3042 3042 3042 3041 3044 3045 3047 3048 3049 3050 3050 3050 3051 3051 3051 3051 3051 3051 3051 3052 3052 3051 3052 3053
3060 3060 3060 3059 3059 3058 3056 3054 3052 3050 3048 3046 3044 3042 3040 3038 3037 3037 3037 3037 3040 3040 3041 3042 3042 3044 3044 3046 3046 3046 3046 3045 3045 3045 3045 3046 3046 3046 3047 3047 3047 3047 3048
3054 3054 3054 3054 3053 3051 3048 3046 3044 3042 3040 3038 3036 3035 3034 3033 3033 3033 3034 3035 3037 3039 3039 3039 3038 3040 3041 3041 3041 3042 3041 3041 3040 3039 3040 3040 3040 3041 3042 3042 3042 3042 3043
3048 3048 3047 3046 3044 3043 3040 3038 3036 3034 3032 3031 3030 3029 3028 3029 3030 3030 3032 3033 3034 3035 3037 3037 3036 3037 3037 3038 3037 3037 3036 3035 3035 3034 3034 3035 3035 3035 3036 3036 3036 3037 3037
3041 3041 3040 3038 3036 3034 3032 3030 3029 3027 3026 3025 3025 3024 3025 3025 3026 3028 3029 3030 3032 3033 3034 3034 3033 3033 3033 3033 3034 3033 3032 3031 3030 3030 3029 3030 3030 3030 3030 3030 3030 3030 3030